STARLINK-34236

Last updated on Sat Aug 02 2025 00:02:05 GMT+0000 (Coordinated Universal Time)

1 64743U 25144V 25213.58335648 -.01814182 00000+0 -47000-1 0 9993 2 64743 53.1595 124.7424 0001278 70.2003 295.7622 15.41685763 6092
UTC large
Height (km)
Speed (km/s)
/
Latitude / Longitude
Inclination (degrees)
Orbital Period (minutes)
Azimuth
Elevation
Range (km)
Doppler Factor

Next 0 passes for location: London (51.5072 / 0.1276)

Sorry there are no passes over London.